�������l�o���
Date,Time,MP-1(��Sv/h),MP-2(��Sv/h),MP-3(��Sv/h),MP-4(��Sv/h),MP-5(��Sv/h),MP-6(��Sv/h),MP-7(��Sv/h),MP-8(��Sv/h),����,����(m/s),���J
2020/08/03,00:00,0.659,0.947,0.592,1.132,0.810,0.395,0.667,0.628,��,1.7,��
2020/08/03,00:10,0.659,0.947,0.592,1.134,0.815,0.394,0.668,0.629,��,1.5,��
2020/08/03,00:20,0.659,0.947,0.590,1.134,0.814,0.394,0.669,0.628,��쐼,1.5,��
2020/08/03,00:30,0.659,0.945,0.591,1.134,0.814,0.393,0.670,0.629,��,1.5,��
2020/08/03,00:40,0.659,0.947,0.590,1.133,0.811,0.395,0.669,0.628,��쐼,1.5,��
2020/08/03,00:50,0.658,0.947,0.592,1.134,0.812,0.394,0.669,0.629,��쐼,1.1,��
2020/08/03,01:00,0.660,0.946,0.591,1.135,0.812,0.394,0.671,0.628,��쓌,1.9,��
2020/08/03,01:10,0.660,0.946,0.591,1.135,0.811,0.393,0.670,0.629,��쓌,2.2,��
2020/08/03,01:20,0.660,0.947,0.590,1.132,0.812,0.394,0.670,0.629,��쓌,2.0,��
2020/08/03,01:30,0.660,0.946,0.590,1.133,0.812,0.394,0.669,0.630,��쓌,2.0,��
2020/08/03,01:40,0.660,0.947,0.589,1.135,0.811,0.395,0.670,0.628,��쓌,2.3,��
2020/08/03,01:50,0.660,0.947,0.590,1.132,0.813,0.394,0.670,0.630,��,2.3,��
2020/08/03,02:00,0.660,0.948,0.590,1.131,0.811,0.395,0.670,0.628,��쐼,1.9,��
2020/08/03,02:10,0.659,0.947,0.591,1.134,0.811,0.394,0.669,0.629,��,2.0,��
2020/08/03,02:20,0.658,0.947,0.594,1.134,0.814,0.394,0.672,0.628,��,1.7,��
2020/08/03,02:30,0.660,0.947,0.592,1.132,0.813,0.395,0.669,0.629,��,2.0,��
2020/08/03,02:40,0.660,0.947,0.592,1.134,0.812,0.394,0.672,0.629,��쓌,2.6,��
2020/08/03,02:50,0.660,0.946,0.592,1.136,0.812,0.395,0.670,0.629,��쓌,2.6,��
2020/08/03,03:00,0.659,0.948,0.592,1.135,0.812,0.394,0.669,0.627,��쓌,2.3,��
2020/08/03,03:10,0.660,0.945,0.591,1.136,0.813,0.395,0.670,0.630,��쓌,2.3,��
2020/08/03,03:20,0.660,0.949,0.592,1.132,0.811,0.395,0.670,0.629,��쓌,1.9,��
2020/08/03,03:30,0.661,0.947,0.589,1.134,0.812,0.394,0.671,0.630,��,2.0,��
2020/08/03,03:40,0.659,0.945,0.591,1.132,0.813,0.394,0.670,0.629,��,2.0,��
2020/08/03,03:50,0.660,0.947,0.590,1.136,0.811,0.396,0.671,0.628,��,1.9,��
2020/08/03,04:00,0.659,0.947,0.592,1.134,0.813,0.394,0.671,0.631,��,2.2,��
2020/08/03,04:10,0.660,0.946,0.590,1.135,0.812,0.393,0.671,0.626,��쓌,2.2,��
2020/08/03,04:20,0.660,0.945,0.590,1.133,0.813,0.395,0.670,0.629,��쓌,2.5,��
2020/08/03,04:30,0.659,0.947,0.591,1.136,0.812,0.395,0.671,0.629,��,2.2,��
2020/08/03,04:40,0.661,0.948,0.592,1.133,0.812,0.396,0.671,0.628,��쓌,1.7,��
2020/08/03,04:50,0.659,0.946,0.591,1.134,0.811,0.393,0.672,0.628,��,2.3,��
2020/08/03,05:00,0.660,0.946,0.591,1.133,0.813,0.394,0.670,0.629,�쐼,1.9,��
2020/08/03,05:10,0.660,0.946,0.591,1.134,0.810,0.394,0.671,0.629,��,1.5,��
2020/08/03,05:20,0.661,0.945,0.591,1.134,0.812,0.394,0.671,0.630,�쐼,0.6,��
2020/08/03,05:30,0.660,0.947,0.591,1.133,0.811,0.394,0.670,0.629,��쐼,0.6,��
2020/08/03,05:40,0.659,0.946,0.592,1.132,0.812,0.394,0.671,0.629,��쓌,2.2,��
2020/08/03,05:50,0.661,0.947,0.592,1.135,0.812,0.394,0.672,0.629,��쓌,2.3,��
2020/08/03,06:00,0.659,0.945,0.590,1.133,0.812,0.393,0.670,0.630,��쓌,2.0,��
2020/08/03,06:10,0.660,0.945,0.593,1.134,0.812,0.394,0.671,0.629,��,1.7,��
2020/08/03,06:20,0.660,0.947,0.590,1.133,0.811,0.396,0.672,0.628,��,2.3,��
2020/08/03,06:30,0.661,0.948,0.591,1.133,0.812,0.394,0.671,0.629,��쓌,1.9,��
2020/08/03,06:40,0.660,0.948,0.593,1.134,0.809,0.393,0.671,0.629,��쓌,1.7,��
2020/08/03,06:50,0.660,0.946,0.591,1.134,0.813,0.395,0.672,0.629,��,1.2,��
2020/08/03,07:00,0.662,0.944,0.591,1.134,0.810,0.394,0.671,0.632,�쓌,1.4,��
2020/08/03,07:10,0.661,0.945,0.592,1.133,0.813,0.394,0.670,0.629,�쓌,2.0,��
2020/08/03,07:20,0.662,0.944,0.592,1.134,0.814,0.393,0.671,0.630,�쓌,1.7,��
2020/08/03,07:30,0.662,0.945,0.592,1.133,0.812,0.394,0.671,0.631,��쓌,1.7,��
2020/08/03,07:40,0.663,0.947,0.591,1.134,0.812,0.392,0.670,0.630,�쓌,2.0,��
2020/08/03,07:50,0.662,0.946,0.593,1.134,0.812,0.392,0.673,0.628,�쓌,1.9,��
2020/08/03,08:00,0.663,0.948,0.591,1.134,0.813,0.392,0.668,0.628,�쓌,1.7,��
2020/08/03,08:10,0.660,0.946,0.592,1.135,0.814,0.393,0.670,0.626,��쓌,1.2,��
2020/08/03,08:20,0.662,0.946,0.592,1.133,0.812,0.393,0.669,0.626,�쓌,1.4,��
2020/08/03,08:30,0.661,0.948,0.591,1.135,0.812,0.393,0.668,0.629,�쓌,1.9,��
2020/08/03,08:40,0.661,0.946,0.590,1.134,0.812,0.393,0.670,0.627,�쓌,2.6,��
2020/08/03,08:50,0.660,0.946,0.590,1.133,0.812,0.394,0.671,0.628,�쓌,2.0,��
2020/08/03,09:00,0.660,0.942,0.591,1.132,0.813,0.394,0.670,0.625,��,2.0,��
2020/08/03,09:10,0.662,0.946,0.591,1.136,0.811,0.394,0.669,0.628,�쓌,2.0,��
2020/08/03,09:20,0.661,0.946,0.592,1.134,0.812,0.394,0.669,0.626,�쓌,2.6,��
2020/08/03,09:30,0.661,0.947,0.591,1.135,0.812,0.395,0.668,0.628,�쓌,3.1,��
2020/08/03,09:40,0.661,0.948,0.592,1.134,0.812,0.393,0.669,0.628,�쓌,3.2,��
2020/08/03,09:50,0.662,0.947,0.591,1.133,0.815,0.395,0.668,0.627,�쓌,3.3,��
2020/08/03,10:00,0.662,0.945,0.592,1.135,0.813,0.393,0.668,0.627,���쓌,3.2,��
2020/08/03,10:10,0.661,0.947,0.592,1.136,0.813,0.394,0.667,0.627,��쓌,3.2,��
2020/08/03,10:20,0.662,0.944,0.593,1.134,0.814,0.392,0.669,0.628,�쓌,3.0,��
2020/08/03,10:30,0.661,0.949,0.592,1.132,0.812,0.394,0.669,0.628,��쓌,3.0,��
2020/08/03,10:40,0.661,0.945,0.593,1.134,0.815,0.395,0.670,0.628,�쓌,3.1,��
2020/08/03,10:50,0.661,0.947,0.591,1.135,0.816,0.395,0.670,0.627,��쓌,3.7,��
2020/08/03,11:00,0.662,0.948,0.592,1.132,0.816,0.393,0.672,0.627,��쓌,4.5,��
2020/08/03,11:10,0.662,0.947,0.591,1.134,0.815,0.393,0.670,0.628,��쓌,5.1,��
2020/08/03,11:20,0.662,0.950,0.591,1.131,0.816,0.393,0.669,0.628,��쓌,4.9,��
2020/08/03,11:30,0.663,0.950,0.593,1.131,0.816,0.391,0.669,0.627,��쓌,5.9,��
2020/08/03,11:40,0.661,0.949,0.591,1.132,0.815,0.393,0.670,0.628,��쓌,6.0,��
2020/08/03,11:50,0.662,0.951,0.592,1.134,0.817,0.394,0.671,0.630,��쓌,5.3,��
2020/08/03,12:00,0.664,0.953,0.594,1.135,0.815,0.393,0.669,0.628,��쓌,5.1,��
2020/08/03,12:10,0.663,0.955,0.593,1.132,0.816,0.393,0.671,0.628,��쓌,5.5,��
2020/08/03,12:20,0.663,0.955,0.593,1.133,0.816,0.394,0.672,0.628,��쓌,6.8,��
2020/08/03,12:30,0.662,0.954,0.593,1.135,0.819,0.393,0.673,0.629,��쓌,6.6,��
2020/08/03,12:40,0.663,0.956,0.593,1.135,0.817,0.394,0.671,0.630,��쓌,6.1,��
2020/08/03,12:50,0.662,0.953,0.594,1.134,0.818,0.395,0.671,0.628,��쓌,6.3,��
2020/08/03,13:00,0.663,0.954,0.594,1.135,0.818,0.394,0.671,0.629,��쓌,6.8,��
2020/08/03,13:10,0.662,0.956,0.593,1.135,0.819,0.395,0.670,0.628,��쓌,6.3,��
2020/08/03,13:20,0.662,0.953,0.593,1.134,0.817,0.395,0.669,0.628,��쓌,5.6,��
2020/08/03,13:30,0.662,0.953,0.592,1.133,0.818,0.394,0.670,0.628,��쓌,6.3,��
2020/08/03,13:40,0.662,0.950,0.594,1.136,0.819,0.393,0.670,0.630,��쓌,6.1,��
2020/08/03,13:50,0.662,0.954,0.593,1.137,0.817,0.394,0.671,0.628,��쓌,6.0,��
2020/08/03,14:00,0.665,0.954,0.593,1.136,0.818,0.394,0.669,0.629,��쓌,5.9,��
2020/08/03,14:10,0.663,0.952,0.593,1.134,0.819,0.394,0.671,0.628,��쓌,7.2,��
2020/08/03,14:20,0.663,0.955,0.593,1.134,0.818,0.394,0.670,0.629,��쓌,7.7,��
2020/08/03,14:30,0.664,0.953,0.595,1.135,0.817,0.396,0.670,0.628,��쓌,7.4,��
2020/08/03,14:40,0.662,0.955,0.594,1.135,0.820,0.395,0.670,0.628,��쓌,5.3,��
2020/08/03,14:50,0.663,0.957,0.594,1.136,0.819,0.396,0.670,0.629,��쓌,5.4,��
2020/08/03,15:00,0.663,0.956,0.595,1.136,0.819,0.394,0.670,0.630,��쓌,5.5,��
2020/08/03,15:10,0.663,0.958,0.594,1.135,0.820,0.396,0.670,0.630,��쓌,6.6,��
2020/08/03,15:20,0.663,0.954,0.594,1.135,0.818,0.395,0.670,0.630,��쓌,7.5,��
2020/08/03,15:30,0.663,0.955,0.595,1.138,0.817,0.395,0.670,0.629,��쓌,7.5,��
2020/08/03,15:40,0.662,0.957,0.595,1.136,0.820,0.397,0.671,0.630,��쓌,7.3,��
2020/08/03,15:50,0.664,0.959,0.594,1.140,0.818,0.396,0.671,0.628,��,6.8,��
2020/08/03,16:00,0.666,0.956,0.593,1.140,0.819,0.397,0.670,0.630,��쓌,7.3,��
2020/08/03,16:10,0.664,0.960,0.593,1.140,0.820,0.397,0.670,0.628,��쓌,7.7,��
2020/08/03,16:20,0.664,0.958,0.594,1.139,0.820,0.395,0.671,0.628,��쓌,7.0,��
2020/08/03,16:30,0.664,0.959,0.594,1.138,0.819,0.397,0.671,0.630,��,7.6,��
2020/08/03,16:40,0.664,0.958,0.594,1.138,0.820,0.395,0.669,0.629,��쓌,7.4,��
2020/08/03,16:50,0.664,0.956,0.595,1.140,0.820,0.395,0.669,0.629,��쓌,7.5,��
2020/08/03,17:00,0.665,0.958,0.595,1.139,0.821,0.395,0.668,0.630,��,6.4,��
2020/08/03,17:10,0.663,0.959,0.595,1.139,0.819,0.396,0.669,0.629,��쓌,7.9,��
2020/08/03,17:20,0.662,0.958,0.594,1.140,0.820,0.397,0.668,0.627,��,7.6,��
2020/08/03,17:30,0.662,0.960,0.593,1.138,0.820,0.394,0.667,0.628,��,8.0,��
2020/08/03,17:40,0.663,0.958,0.594,1.137,0.820,0.396,0.668,0.631,��,7.0,��
2020/08/03,17:50,0.663,0.958,0.595,1.139,0.819,0.396,0.669,0.629,��,6.8,��
2020/08/03,18:00,0.664,0.959,0.594,1.141,0.819,0.396,0.670,0.631,��,6.2,��
2020/08/03,18:10,0.663,0.961,0.595,1.141,0.818,0.397,0.668,0.629,��,7.3,��
2020/08/03,18:20,0.662,0.960,0.595,1.139,0.819,0.398,0.670,0.630,��,6.0,��
2020/08/03,18:30,0.664,0.958,0.594,1.139,0.819,0.397,0.668,0.630,��,6.0,��
2020/08/03,18:40,0.664,0.960,0.596,1.143,0.821,0.397,0.671,0.629,��,4.6,��
2020/08/03,18:50,0.664,0.959,0.596,1.144,0.822,0.398,0.670,0.630,��쓌,5.4,��
2020/08/03,19:00,0.664,0.959,0.595,1.143,0.821,0.399,0.669,0.631,��,5.1,��
2020/08/03,19:10,0.665,0.960,0.594,1.142,0.821,0.398,0.670,0.630,��,6.2,��
2020/08/03,19:20,0.664,0.961,0.595,1.144,0.821,0.397,0.671,0.630,��,5.6,��
2020/08/03,19:30,0.664,0.960,0.597,1.142,0.821,0.398,0.670,0.630,��,6.1,��
2020/08/03,19:40,0.664,0.960,0.597,1.142,0.822,0.397,0.671,0.630,��,5.7,��
2020/08/03,19:50,0.665,0.963,0.598,1.142,0.823,0.398,0.669,0.631,��,5.8,��
2020/08/03,20:00,0.664,0.961,0.597,1.143,0.823,0.398,0.671,0.630,��,5.9,��
2020/08/03,20:10,0.666,0.963,0.597,1.146,0.821,0.399,0.670,0.632,��,5.8,��
2020/08/03,20:20,0.664,0.963,0.597,1.145,0.820,0.399,0.670,0.631,��,5.8,��
2020/08/03,20:30,0.664,0.962,0.597,1.145,0.822,0.397,0.671,0.631,��,6.0,��
2020/08/03,20:40,0.665,0.961,0.599,1.142,0.822,0.397,0.669,0.630,��,5.9,��
2020/08/03,20:50,0.666,0.960,0.599,1.143,0.822,0.398,0.671,0.632,��,6.1,��
2020/08/03,21:00,0.665,0.960,0.596,1.141,0.821,0.397,0.671,0.630,��,6.4,��
2020/08/03,21:10,0.667,0.963,0.597,1.145,0.821,0.397,0.671,0.631,��,6.2,��
2020/08/03,21:20,0.665,0.962,0.597,1.143,0.822,0.395,0.671,0.632,��,6.3,��
2020/08/03,21:30,0.666,0.959,0.599,1.141,0.823,0.398,0.671,0.631,��,6.3,��
2020/08/03,21:40,0.663,0.961,0.598,1.144,0.822,0.397,0.670,0.632,��,5.6,��
2020/08/03,21:50,0.666,0.959,0.597,1.144,0.823,0.397,0.669,0.631,��,6.3,��
2020/08/03,22:00,0.665,0.960,0.598,1.143,0.822,0.398,0.670,0.631,��,6.3,��
2020/08/03,22:10,0.665,0.962,0.595,1.143,0.823,0.398,0.670,0.631,��,6.2,��
2020/08/03,22:20,0.665,0.959,0.598,1.142,0.822,0.397,0.670,0.630,��,5.7,��
2020/08/03,22:30,0.665,0.962,0.599,1.144,0.823,0.396,0.670,0.631,��,6.0,��
2020/08/03,22:40,0.666,0.960,0.598,1.144,0.822,0.399,0.670,0.630,��,5.9,��
2020/08/03,22:50,0.664,0.960,0.596,1.144,0.823,0.397,0.674,0.632,��,5.9,��
2020/08/03,23:00,0.666,0.961,0.598,1.142,0.822,0.397,0.671,0.632,��,6.2,��
2020/08/03,23:10,0.665,0.960,0.596,1.143,0.822,0.397,0.672,0.630,��,5.3,��
2020/08/03,23:20,0.667,0.962,0.599,1.143,0.823,0.396,0.672,0.630,��,5.7,��
2020/08/03,23:30,0.666,0.962,0.599,1.146,0.823,0.397,0.671,0.629,��,6.4,��
2020/08/03,23:40,0.664,0.960,0.599,1.144,0.823,0.397,0.671,0.631,��,6.6,��
2020/08/03,23:50,0.666,0.959,0.597,1.144,0.823,0.398,0.671,0.631,��쐼,6.0,��
